Wind_Speed
21 20 18 18 18 19 19 18 16 15 16 16 15 15 14 15 15 16 16 16 17 17 16 16 15 14 13 13 14 17 18 20 22 22 22 21 20 19 18 17 16 14 13 13
20 19 19 20 19 19 19 18 16 16 17 17 16 15 15 16 16 16 16 17 17 17 15 14 14 13 12 12 13 15 18 20 22 22 22 21 21 20 19 17 16 15 14 14
20 19 20 20 20 20 20 19 18 17 18 17 16 14 15 16 17 17 17 16 15 16 14 13 12 11 9 11 13 13 16 20 21 21 22 22 21 20 19 18 17 16 15 15
20 20 20 20 20 20 19 19 18 18 17 17 17 15 14 15 16 16 16 15 14 14 13 11 11 10 9 10 12 13 17 19 20 20 21 22 22 20 19 19 18 17 16 16
19 20 20 20 20 20 19 19 19 18 17 17 16 15 13 13 14 15 14 12 12 13 11 10 9 8 7 8 11 14 17 19 20 20 20 22 22 21 20 20 19 17 17 17
21 22 21 20 20 21 20 20 20 19 18 16 14 15 13 12 13 13 12 11 11 12 9 8 7 5 5 6 9 12 15 17 19 20 21 22 22 21 20 19 18 18 17 17
20 21 21 21 21 21 21 20 20 19 17 16 14 14 12 12 13 12 11 10 10 10 9 7 5 4 4 5 8 11 13 16 18 20 20 21 21 21 20 19 19 18 18 17
18 19 19 20 20 21 21 21 20 19 17 15 14 13 11 12 11 10 9 8 8 9 8 6 4 3 4 6 9 11 13 16 19 21 21 21 20 20 20 19 19 18 18 17
16 17 18 19 20 21 21 21 21 20 18 17 15 13 11 10 9 9 9 8 8 8 7 5 3 2 4 6 9 11 13 15 18 20 21 21 21 20 19 19 19 19 18 18
17 18 19 20 21 21 21 21 21 20 20 19 16 13 11 10 8 8 8 8 8 8 7 6 4 2 3 5 7 10 12 14 15 18 19 20 20 19 19 19 19 19 19 19
18 19 19 20 21 21 22 22 22 22 21 20 17 13 11 9 9 9 9 9 8 8 8 7 5 3 3 4 7 10 11 12 13 15 17 18 19 19 19 19 18 18 19 19
20 20 20 21 22 23 23 22 22 23 22 21 19 14 11 10 10 10 10 10 10 9 9 8 6 5 5 5 6 8 10 10 12 13 15 17 18 18 18 18 18 18 18 19
22 22 21 22 23 24 24 24 23 23 23 22 20 15 13 12 12 11 11 11 11 11 10 8 7 6 7 7 8 9 10 11 12 13 14 15 16 17 17 18 18 17 18 18
24 25 24 24 24 24 23 23 24 25 25 23 20 17 15 14 13 13 12 12 13 12 11 9 9 8 8 9 9 10 11 11 11 12 14 14 15 16 17 17 18 18 19 19
26 26 26 25 26 25 24 25 26 26 25 24 21 19 18 16 15 14 14 14 13 13 13 12 11 11 10 10 11 12 12 13 13 13 14 15 16 16 17 17 18 19 20 20
27 27 27 26 27 27 26 25 26 27 26 25 24 21 20 19 17 16 15 14 14 14 14 14 13 13 13 12 12 13 15 15 15 15 16 16 17 17 17 18 18 19 21 22
28 28 28 28 27 27 26 25 26 27 26 26 25 23 22 21 19 18 17 16 15 15 16 16 16 16 16 16 16 16 16 17 18 18 18 18 18 19 19 20 21 21 23 24
28 29 29 30 29 29 26 25 26 27 26 26 25 24 23 22 21 20 19 18 17 17 17 18 19 19 18 18 17 18 18 19 20 20 20 21 21 21 22 22 23 23 24 25
28 28 28 29 29 29 28 26 26 26 25 25 24 22 22 22 22 22 21 20 19 19 18 19 20 20 19 19 20 20 20 20 21 22 22 23 24 24 24 25 26 27 27 28
27 27 28 28 29 29 27 26 26 26 25 24 24 24 23 22 22 21 21 21 20 21 21 20 21 21 21 21 22 22 22 23 23 24 25 26 26 26 26 27 28 29 30 30
25 25 26 26 27 27 25 24 24 24 23 23 23 23 22 21 21 21 21 21 21 21 22 22 22 22 22 22 22 23 24 24 25 27 27 27 27 27 28 29 29 30 31 32
21 21 22 23 23 22 22 22 22 22 22 22 22 22 21 21 21 21 21 22 22 21 22 23 23 24 24 24 24 24 24 25 27 28 28 28 28 28 29 30 30 31 32 32
20 20 20 21 20 20 20 21 21 20 20 21 21 20 20 20 21 21 22 22 23 24 24 24 24 25 26 25 25 25 26 26 27 28 28 29 30 30 31 32 33 33 34 34
17 18 18 18 18 18 18 18 17 17 18 19 20 19 20 20 21 21 21 22 23 24 25 26 27 27 27 26 25 25 26 27 27 27 28 30 31 32 33 34 34 35 35 36
16 16 15 15 15 16 16 15 15 16 17 18 18 19 19 18 19 20 21 21 22 23 24 25 26 27 27 25 24 24 25 26 26 27 29 30 31 32 33 34 34 36 35 36
15 14 14 14 13 13 14 14 14 15 16 16 17 17 17 17 17 19 20 20 20 21 22 23 23 24 25 25 24 24 25 26 27 28 30 31 32 33 33 34 34 35 37 37
Wind_Direction
260 257 254 249 247 247 250 253 253 256 267 275 287 296 302 309 310 308 307 309 312 311 310 307 300 291 270 252 239 229 220 212 210 208 209 211 214 218 218 221 222 225 225 221
254 249 245 245 246 247 249 252 254 256 265 275 287 296 302 307 310 311 308 307 308 307 309 307 302 294 269 247 233 230 220 209 207 206 207 208 212 214 214 217 220 219 218 217
249 243 241 242 244 246 249 252 254 257 265 277 287 292 301 308 310 312 311 309 307 309 307 305 302 298 270 241 227 227 219 210 207 204 207 208 209 209 212 215 216 215 214 213
242 239 239 240 241 245 247 252 254 260 269 277 289 294 303 310 310 312 314 313 309 309 306 302 297 293 270 239 224 220 212 209 204 200 204 205 204 208 212 210 209 209 211 211
236 234 236 237 239 245 247 250 255 262 270 279 289 297 306 310 312 314 317 317 314 313 305 298 295 285 267 237 216 213 207 205 200 197 199 201 201 205 204 203 204 207 210 209
232 232 234 234 237 244 248 249 255 262 269 277 289 296 305 307 312 312 317 321 322 319 310 304 301 276 258 226 200 196 193 192 193 193 195 197 197 200 201 200 201 204 207 206
231 232 232 233 235 242 248 252 255 261 268 277 284 290 304 305 307 308 314 320 326 329 330 323 306 260 236 194 177 179 183 185 186 187 190 194 196 198 200 199 200 202 203 203
226 227 232 235 236 240 245 251 256 262 267 272 277 287 303 306 302 304 309 312 317 326 330 336 327 249 209 188 180 178 181 183 183 186 189 191 194 197 197 198 199 202 202 202
223 222 230 232 235 237 240 246 255 262 269 272 275 281 291 299 297 300 304 302 304 313 322 328 330 276 200 182 173 176 177 181 185 188 192 192 194 196 196 199 201 204 205 205
224 221 226 231 233 236 240 245 251 259 267 270 272 278 284 286 288 290 299 296 297 301 307 312 313 276 206 192 180 178 182 185 187 193 195 195 196 198 202 205 208 210 209 209
230 227 224 228 232 236 239 243 248 256 263 269 273 278 283 284 286 286 291 292 293 292 297 297 293 261 222 194 187 188 188 188 189 192 194 197 200 202 207 211 211 212 213 213
238 238 233 232 235 241 245 248 250 255 260 264 270 275 279 279 284 281 284 289 287 283 286 284 275 259 223 208 199 196 194 197 196 197 197 200 202 205 209 211 214 217 219 220
245 244 240 236 239 244 247 250 253 257 261 263 267 272 274 277 280 279 280 283 283 279 276 271 262 247 228 221 212 207 206 207 205 203 202 203 206 210 213 216 220 223 225 227
252 252 249 246 246 248 251 254 256 258 261 263 265 269 269 269 272 276 278 280 280 274 267 265 257 245 233 228 223 219 216 213 210 208 208 210 214 217 220 223 227 231 232 233
257 256 253 253 252 251 252 255 257 259 261 261 263 264 266 266 269 274 275 275 275 267 259 256 255 250 242 235 231 228 225 222 218 215 215 216 219 224 226 229 234 237 238 239
258 258 256 257 258 256 256 257 258 258 259 262 263 264 264 264 266 270 269 269 271 262 255 252 250 249 248 243 237 233 230 227 224 224 225 225 226 228 229 232 237 240 242 244
256 257 257 258 258 259 259 261 259 257 259 261 263 264 261 261 263 264 262 262 263 260 254 250 247 248 247 246 244 240 234 231 230 230 231 233 233 234 234 238 242 245 247 249
256 255 256 257 259 261 263 262 261 259 259 260 261 260 258 259 259 259 258 259 259 257 252 249 246 247 248 247 245 242 239 237 236 236 237 239 238 240 241 244 248 250 253 255
254 256 257 258 260 262 262 262 261 260 259 259 257 256 254 255 256 256 256 257 256 252 251 250 245 243 248 249 245 242 241 241 242 242 242 242 244 244 245 248 250 253 255 258
253 254 256 260 262 262 260 259 260 260 258 255 254 254 256 255 254 253 253 253 253 250 251 252 247 244 247 249 247 245 245 244 244 246 245 246 248 249 250 251 254 256 257 259
254 253 255 257 260 261 259 258 256 255 255 254 253 253 252 253 253 252 250 250 249 250 250 249 247 246 246 247 248 248 249 249 249 248 248 248 251 253 253 255 257 260 262 264
256 256 254 255 256 257 254 253 252 252 251 251 249 250 251 254 254 253 252 250 248 249 249 248 248 248 248 248 248 249 249 251 253 253 252 253 255 257 259 260 262 265 266 268
253 254 256 255 254 251 249 250 249 248 249 249 249 249 251 252 253 253 252 250 246 244 246 247 250 249 248 248 249 250 250 252 255 256 257 258 259 261 262 263 265 267 268 269
252 251 251 250 249 249 247 246 245 246 247 246 247 248 250 251 249 249 249 246 244 243 245 247 248 248 248 248 249 249 250 254 257 260 262 263 263 264 266 268 267 268 268 268
250 250 248 249 246 242 239 242 245 246 246 245 245 247 246 245 242 241 244 245 245 246 247 248 247 245 246 250 253 254 254 258 262 264 265 268 270 272 272 271 270 270 268 271
246 247 245 242 240 238 237 241 243 241 241 243 244 241 238 237 236 237 239 241 242 244 247 248 249 249 248 251 255 257 260 263 265 267 269 271 273 275 276 275 276 274 273 275
Height
5840 5843 5843 5843 5844 5845 5846 5847 5848 5848 5847 5846 5846 5845 5845 5843 5842 5839 5837 5835 5833 5830 5827 5825 5823 5821 5820 5820 5821 5824 5828 5832 5836 5840 5844 5848 5851 5855 5858 5860 5863 5865 5867 5869
5837 5838 5838 5839 5840 5842 5842 5844 5845 5845 5844 5843 5843 5842 5841 5840 5838 5836 5834 5832 5830 5827 5824 5821 5819 5817 5816 5816 5818 5821 5824 5828 5832 5836 5841 5844 5848 5852 5855 5858 5860 5863 5865 5867
5831 5834 5833 5835 5837 5838 5839 5841 5841 5841 5841 5840 5840 5840 5839 5837 5835 5833 5831 5829 5826 5824 5821 5819 5816 5815 5813 5813 5815 5818 5820 5824 5828 5833 5837 5841 5845 5849 5852 5855 5858 5861 5863 5865
5827 5828 5830 5832 5833 5835 5836 5837 5838 5838 5838 5838 5838 5837 5837 5834 5832 5830 5828 5826 5823 5821 5818 5817 5814 5812 5811 5812 5813 5815 5818 5821 5825 5829 5834 5838 5842 5846 5850 5853 5856 5858 5861 5863
5823 5824 5826 5828 5830 5831 5833 5834 5834 5835 5835 5835 5835 5834 5835 5832 5830 5828 5826 5823 5821 5819 5816 5814 5812 5811 5810 5810 5811 5812 5815 5819 5823 5827 5831 5836 5840 5844 5847 5850 5853 5856 5859 5861
5819 5820 5822 5825 5827 5828 5830 5831 5831 5831 5832 5833 5833 5832 5832 5829 5828 5826 5824 5822 5820 5817 5814 5813 5811 5810 5810 5810 5810 5811 5814 5817 5821 5825 5829 5834 5838 5842 5845 5848 5851 5854 5857 5860
5815 5817 5819 5821 5823 5825 5826 5828 5829 5829 5829 5830 5830 5829 5830 5827 5826 5824 5823 5821 5819 5817 5814 5812 5811 5810 5810 5811 5811 5812 5814 5817 5821 5824 5829 5833 5837 5840 5843 5847 5850 5853 5855 5858
5811 5814 5816 5818 5820 5822 5823 5824 5826 5826 5826 5827 5827 5827 5828 5825 5824 5822 5822 5821 5819 5818 5816 5813 5812 5811 5811 5812 5812 5814 5815 5817 5821 5825 5829 5832 5836 5839 5842 5845 5848 5851 5854 5856
5808 5810 5812 5814 5816 5818 5819 5820 5822 5823 5823 5824 5824 5825 5825 5823 5822 5821 5820 5820 5819 5818 5816 5814 5813 5812 5812 5813 5814 5815 5817 5819 5822 5825 5828 5831 5834 5838 5841 5844 5847 5850 5852 5855
5803 5806 5808 5810 5812 5814 5815 5817 5818 5819 5819 5820 5822 5822 5822 5822 5820 5820 5819 5818 5818 5817 5816 5815 5814 5813 5813 5814 5815 5816 5818 5820 5822 5824 5827 5830 5834 5837 5840 5843 5846 5848 5851 5853
5799 5802 5805 5806 5807 5809 5811 5813 5813 5814 5815 5817 5817 5821 5820 5819 5819 5818 5817 5817 5816 5816 5816 5815 5814 5814 5814 5814 5815 5817 5818 5820 5822 5824 5827 5830 5833 5836 5839 5842 5844 5847 5849 5851
5795 5797 5799 5802 5803 5805 5806 5807 5809 5811 5811 5812 5814 5819 5817 5817 5816 5816 5815 5815 5814 5815 5814 5814 5814 5814 5814 5815 5816 5817 5818 5820 5822 5824 5826 5829 5832 5835 5838 5840 5842 5845 5847 5849
5790 5793 5795 5797 5800 5801 5801 5802 5804 5806 5807 5808 5810 5815 5813 5814 5813 5813 5813 5813 5812 5812 5813 5813 5813 5813 5814 5815 5815 5816 5818 5819 5821 5823 5825 5828 5830 5833 5836 5838 5840 5842 5844 5846
5785 5787 5790 5792 5793 5794 5796 5797 5799 5800 5802 5803 5806 5808 5809 5810 5810 5810 5811 5810 5810 5810 5810 5811 5812 5812 5813 5814 5815 5816 5817 5818 5820 5822 5824 5826 5828 5831 5833 5835 5837 5839 5841 5843
5779 5781 5783 5785 5787 5788 5790 5792 5793 5795 5796 5798 5801 5803 5805 5805 5806 5806 5807 5807 5807 5807 5808 5809 5810 5810 5811 5812 5813 5814 5816 5817 5819 5820 5822 5824 5826 5828 5830 5832 5834 5836 5837 5839
5772 5774 5776 5778 5780 5781 5783 5785 5787 5789 5790 5792 5795 5797 5799 5800 5801 5802 5803 5803 5804 5804 5805 5805 5806 5807 5808 5809 5810 5812 5813 5815 5816 5818 5820 5822 5823 5825 5827 5829 5830 5832 5833 5834
5766 5767 5769 5771 5773 5774 5776 5779 5780 5782 5784 5786 5788 5792 5793 5794 5795 5797 5798 5799 5800 5800 5801 5802 5803 5804 5804 5805 5807 5808 5809 5811 5813 5815 5816 5818 5820 5822 5823 5825 5826 5827 5828 5830
5759 5761 5762 5764 5767 5767 5772 5772 5773 5775 5777 5780 5782 5784 5786 5788 5789 5791 5792 5794 5795 5796 5796 5797 5798 5800 5800 5801 5802 5804 5805 5807 5809 5811 5812 5814 5815 5817 5818 5820 5821 5822 5823 5824
5753 5754 5755 5757 5758 5760 5764 5765 5766 5768 5770 5773 5775 5777 5778 5780 5782 5784 5786 5788 5789 5790 5791 5792 5794 5795 5796 5797 5798 5799 5801 5803 5805 5806 5808 5809 5811 5812 5813 5814 5814 5815 5816 5817
5746 5747 5749 5750 5751 5753 5757 5758 5759 5762 5763 5766 5768 5770 5771 5773 5776 5778 5780 5781 5783 5784 5786 5787 5789 5790 5791 5791 5792 5794 5796 5798 5799 5801 5802 5803 5804 5805 5806 5807 5807 5808 5809 5809
5739 5740 5741 5743 5744 5746 5749 5751 5753 5756 5758 5759 5760 5762 5764 5767 5769 5771 5772 5774 5776 5778 5780 5781 5783 5784 5785 5786 5787 5789 5790 5792 5793 5794 5795 5796 5797 5798 5798 5799 5800 5800 5800 5801
5732 5733 5735 5736 5738 5742 5742 5744 5746 5748 5750 5751 5753 5755 5758 5760 5762 5764 5766 5768 5770 5771 5773 5774 5776 5778 5779 5780 5781 5782 5784 5785 5786 5787 5788 5789 5790 5790 5790 5791 5791 5791 5791 5791
5727 5729 5729 5731 5734 5735 5736 5737 5739 5741 5743 5745 5747 5749 5751 5753 5755 5757 5759 5761 5763 5764 5766 5768 5769 5771 5772 5774 5775 5776 5777 5778 5779 5780 5781 5781 5782 5781 5781 5782 5782 5781 5781 5781
5722 5723 5724 5725 5727 5729 5730 5731 5733 5735 5737 5739 5741 5743 5745 5747 5749 5750 5752 5754 5756 5757 5759 5761 5762 5764 5766 5767 5767 5769 5770 5771 5772 5773 5774 5773 5773 5773 5773 5772 5772 5771 5771 5771
5718 5718 5720 5721 5722 5723 5725 5727 5728 5730 5731 5733 5735 5737 5738 5740 5742 5744 5746 5747 5749 5750 5752 5753 5755 5756 5759 5760 5761 5763 5763 5764 5765 5765 5766 5765 5765 5765 5764 5763 5762 5762 5761 5760
5713 5714 5715 5716 5718 5719 5721 5722 5724 5725 5727 5728 5730 5732 5733 5734 5736 5737 5739 5741 5742 5744 5745 5747 5748 5749 5752 5754 5755 5756 5757 5757 5758 5758 5758 5757 5757 5756 5754 5754 5753 5751 5750 5749